Tracking 19817 objects as of 18-Aug-2019
HD Live streaming from Space Station
objects crossing your sky now

COSMOS 2251 DEB

Track COSMOS 2251 DEB now!
10-day predictions


NORAD ID: 38485
Int'l Code: 1993-036BTV
Perigee: 667.5 km
Apogee: 733.5 km
Inclination: 74.0 °
Period: 98.6 minutes
Semi major axis: 7071 km
RCS: 0.001 m2 (small)
Launch date: June 16, 1993
Source: Commonwealth of Independent States (former USSR) (CIS)
Launch site: PLESETSK MISSILE AND SPACE COMPLEX (PKMTR)

Note: This is SATELLITE DEBRIS
aabbcc
Your satellite tracking list
Your tracking list is empty




NASA's NSSDC Master Catalog

Two Line Element Set (TLE):
1 38485U 93036BTV 19226.99104156 +.00000424 +00000-0 +93505-4 0  9990
2 38485 074.0216 335.0857 0046667 332.8801 026.9927 14.59956820835678
Source of the keplerian elements: AFSPC